Location: Donzy-le-Pr�
(47.3659°N, 3.1107°E)
Time: 12:04:43
(UTC+00:00)

FALCON 9 DEB - Pass Details

Date: 03 March 2021
Orbit: 365 x 386 km, 53.0° (Epoch: 22 April)

Event Time Altitude Azimuth Distance (km) Brightness Sun altitude
Rises 19:21:53 0° 294° (WNW) 2,302 8.3 -18.7°
Reaches altitude 10° 19:24:05 10° 304° (NW) 1,442 6.8 -19.1°
Maximum altitude 19:27:02 32° 10° (N) 705 4.1 -19.5°
Enters shadow 19:27:04 32° 12° (NNE) 705 4.1 -19.5°
